www.pogodaiklimat.ru

Погода и климат >> Архив погоды >> Антарктида >> Cape Ross


ПОГОДА в Cape Ross

  • Прогноз погоды в Cape Ross
  • Монитор погоды в Cape Ross
  • Климат города

АРХИВ ПОГОДЫ в Cape Ross

Время (UTC), дата Ветер
(напр.,м/с)
 
Видим.   Явления Облачность Т
(С)
Тd
(С)
f
(%)
Тe
(С)
Тes
(С)
Комфортность P
(гПа)
Po
(гПа)
Тmin
(С)
Tmax
(С)
R
(мм)
R24
(мм)
S
(см)
17 12.07 ЮЗ 15 н/о н/о -31.7 946.6
16 12.07 ЮЗ 14 н/о н/о -31.2 945.8
18 12.07 ЮЗ 15 н/о н/о -31.7 946.6
19 12.07 ЮЗ 14 н/о н/о -32.3 947.6
20 12.07 ЮЗ 14 н/о н/о -32.3 947.6
21 12.07 ЮЗ 10 н/о н/о -31.4 949.0
23 12.07 ЮЗ 7 н/о н/о -30.6 950.0
22 12.07 ЮЗ 7 н/о н/о -30.6 950.0
00 13.07 Ю 5 н/о н/о -30.2 950.5
01 13.07 ЮЗ 2 н/о н/о -30.0 951.0
02 13.07 ЮЗ 1 н/о н/о -29.7 951.1
03 13.07 СВ 1 н/о н/о -32.0 952.5
05 13.07 0 н/о н/о -31.7 953.2
04 13.07 0 н/о н/о -31.7 953.2
06 13.07 СЗ 2 н/о н/о -33.7 953.9
08 13.07 З 3 н/о н/о -33.3 955.8
09 13.07 З 4 н/о н/о -32.0 956.5
10 13.07 З 4 н/о н/о -32.0 956.5
11 13.07 З 3 н/о н/о -31.5 957.2
12 13.07 СЗ 6 н/о н/о -31.1 958.1
13 13.07 СЗ 0 н/о н/о -31.1 958.1
14 13.07 З 6 н/о н/о -30.3 958.3
15 13.07 СЗ 5 н/о н/о -29.5 959.3
16 13.07 СЗ 5 н/о н/о -29.5 959.3
17 13.07 З 5 н/о н/о -28.8 960.4
18 13.07 З 7 н/о н/о -27.6 960.4
19 13.07 СЗ 5 н/о н/о -29.3 960.7
20 13.07 СЗ 4 н/о н/о -28.7 961.3
21 13.07 СЗ 4 н/о н/о -28.7 961.3
22 13.07 С 2 н/о н/о -26.2 961.6
00 14.07 З 1 н/о н/о -28.2 961.9
02 14.07 З 3 н/о н/о -24.9 961.3
01 14.07 З 3 н/о н/о -24.9 961.3
03 14.07 З 4 н/о н/о -22.6 960.8
04 14.07 З 4 н/о н/о -22.6 960.8
05 14.07 З 5 н/о н/о -23.8 960.4
06 14.07 З 4 н/о н/о -23.7 959.5
08 14.07 СЗ 2 н/о н/о -22.3 958.8
09 14.07 СЗ 2 н/о н/о -23.1 959.0
10 14.07 СЗ 2 н/о н/о -23.1 959.0
11 14.07 СЗ 2 н/о н/о -24.1 959.5
13 14.07 СЗ 6 н/о н/о -24.9 959.6
14 14.07 З 8 н/о н/о -24.6 960.1
15 14.07 З 8 н/о н/о -24.6 960.1
16 14.07 З 6 н/о н/о -22.0 961.4
17 14.07 ЮЗ 13 н/о н/о -22.0 961.3
18 14.07 Ю 7 н/о н/о -27.1 962.6
20 14.07 Ю 6 н/о н/о -28.3 963.5
21 14.07 Ю 8 н/о н/о -27.6 964.0
23 14.07 Ю 8 н/о н/о -26.7 966.7
22 14.07 Ю 10 н/о н/о -26.0 964.8
01 15.07 Ю 12 н/о н/о -21.6 967.6
02 15.07 Ю 12 н/о н/о -21.6 967.6
03 15.07 Ю 9 н/о н/о -21.8 968.5
05 15.07 З 1 н/о н/о -21.6 969.2
04 15.07 СЗ 2 н/о н/о -26.5 968.9
06 15.07 СЗ 4 н/о н/о -21.5 969.0
07 15.07 СЗ 4 н/о н/о -21.5 969.0
09 15.07 ЮВ 1 н/о н/о -21.0 969.2
10 15.07 Ю 1 н/о н/о -18.4 969.0
11 15.07 З 6 н/о н/о -19.3 968.4
12 15.07 З 10 н/о н/о -20.5 967.9
13 15.07 З 10 н/о н/о -20.5 967.9
14 15.07 ЮЗ 9 н/о н/о -18.5 967.6
15 15.07 ЮЗ 9 н/о н/о -17.3 967.4
16 15.07 Ю 9 н/о н/о -21.2 968.2
17 15.07 Ю 12 н/о н/о -20.1 968.9
18 15.07 Ю 10 н/о н/о -20.1 969.9
19 15.07 Ю 10 н/о н/о -20.1 969.9
20 15.07 ЮЗ 9 н/о н/о -20.8 969.9
21 15.07 З 4 н/о н/о -20.0 970.2
22 15.07 З 4 н/о н/о -19.8 970.2
23 15.07 З 4 н/о н/о -19.8 970.2
00 16.07 СЗ 6 н/о н/о -19.3 970.2
01 16.07 СЗ 5 н/о н/о -21.3 970.1
03 16.07 С 1 н/о н/о -20.0 969.0
04 16.07 З 1 н/о н/о -19.6 968.6
05 16.07 З 1 н/о н/о -19.6 968.6
06 16.07 З 10 н/о н/о -17.7 967.8
07 16.07 0 н/о
09 16.07 З 8 н/о н/о -20.7 966.8
10 16.07 ЮЗ 10 н/о н/о -19.9 966.1
11 16.07 З 11 н/о н/о -20.3 966.3
12 16.07 З 11 н/о н/о -20.3 966.3
13 16.07 ЮЗ 11 н/о н/о -19.9 966.4
14 16.07 ЮЗ 8 н/о н/о -18.9 966.5
15 16.07 Ю 8 н/о н/о -19.0 966.9
16 16.07 Ю 8 н/о н/о -19.0 966.9
17 16.07 Ю 9 н/о н/о -19.3 967.5
18 16.07 Ю 8 н/о н/о -21.7 967.7
19 16.07 ЮЗ 16 н/о н/о -18.5 966.5
20 16.07 СЗ 5 н/о н/о -19.6 967.3
21 16.07 СЗ 5 н/о н/о -19.6 967.3
23 16.07 ЮЗ 17 н/о н/о -15.5 964.9
00 17.07 ЮЗ 17 н/о н/о -15.5 964.9
01 17.07 ЮЗ 22 н/о н/о -17.5 964.9
02 17.07 ЮЗ 0 н/о н/о -16.5 965.0
03 17.07 ЮЗ 22 н/о н/о -15.9 965.3
05 17.07 ЮВ 6 н/о н/о -20.0 967.5
04 17.07 ЮВ 6 н/о н/о -20.0 967.5
06 17.07 ЮЗ 21 н/о н/о -15.8 966.5
08 17.07 ЮЗ 22 н/о н/о -15.4 965.5
09 17.07 ЮЗ 25 н/о н/о -16.0 964.8
10 17.07 ЮЗ 24 н/о н/о -16.0 964.4
11 17.07 ЮЗ 24 н/о н/о -16.0 964.4
12 17.07 ЮЗ 30 н/о н/о -17.6 962.8
13 17.07 ЮЗ 28 н/о н/о -16.5 963.6
14 17.07 ЮЗ 25 н/о н/о -15.7 962.9
15 17.07 ЮЗ 24 н/о н/о -15.2 963.6
16 17.07 ЮЗ 22 н/о н/о -14.3 963.7
17 17.07 ЮЗ 22 н/о н/о -14.3 963.7
18 17.07 ЮЗ 24 н/о н/о -16.4 965.4
19 17.07 ЮЗ 15 н/о н/о -15.3 966.7
20 17.07 Ю 3 н/о н/о -18.3 969.2
21 17.07 ЮВ 22 н/о н/о -19.0 969.9
22 17.07 ЮВ 6 н/о н/о -19.0 969.9
23 17.07 ЮЗ 20 н/о н/о -17.3 968.4
00 18.07 ЮЗ 22 н/о н/о -16.8 967.9
01 18.07 ЮЗ 14 н/о н/о -15.9 968.3
02 18.07 ЮЗ 24 н/о н/о -17.1 965.9
03 18.07 ЮЗ 28 н/о н/о -16.0 964.4
04 18.07 ЮЗ 22 н/о н/о -16.4 964.9
05 18.07 ЮЗ 22 н/о н/о -16.4 964.9
06 18.07 ЮЗ 23 н/о н/о -16.3 964.6
07 18.07 ЮЗ 20 н/о н/о -16.3 965.0
09 18.07 ЮЗ 21 н/о н/о -16.5 965.8
10 18.07 ЮЗ 21 н/о н/о -16.5 965.8
11 18.07 Ю 9 н/о н/о -19.5 967.5
12 18.07 Ю 10 н/о н/о -22.4 966.7
14 18.07 Ю 10 н/о н/о -18.9 965.5
15 18.07 Ю 10 н/о н/о -18.9 965.5
16 18.07 ЮВ 3 н/о н/о -23.6 964.9
17 18.07 Ю 10 н/о н/о -25.5 961.8
18 18.07 Ю 10 н/о н/о -25.7 961.6
19 18.07 Ю 13 н/о н/о -24.1 959.6
20 18.07 Ю 13 н/о н/о -24.1 959.6
21 18.07 Ю 7 н/о н/о -25.1 959.9
22 18.07 Ю 7 н/о н/о -24.3 958.5
23 18.07 Ю 8 н/о н/о -25.8 957.6
00 19.07 Ю 11 н/о н/о -20.1 955.4
01 19.07 ЮЗ 19 н/о н/о -18.8 953.8
02 19.07 ЮЗ 22 н/о н/о -17.7
03 19.07 ЮЗ 22 н/о н/о -17.7 952.3
04 19.07 ЮЗ 23 н/о н/о -17.4 951.3
05 19.07 ЮЗ 24 н/о н/о -17.5 949.2
06 19.07 ЮЗ 24 н/о н/о -17.5 949.2
07 19.07 З 25 н/о н/о -16.4 946.8
08 19.07 З 25 н/о н/о -16.4 946.8
09 19.07 ЮЗ 31 н/о н/о -18.6 945.2
10 19.07 ЮЗ 26 н/о н/о -19.3 942.0
11 19.07 ЮЗ 26 н/о н/о -19.3 942.0
12 19.07 ЮЗ 28 н/о н/о -19.3 941.4
13 19.07 ЮЗ 28 н/о н/о -19.3 941.4
14 19.07 ЮВ 10 н/о н/о -25.4 947.5

 

Местоположение метеостанции Cape Ross (Антарктида): широта -76.71 долгота 162.96 высота над уровнем моря 149 м.

В архиве по умолчанию представлена погода в Cape Ross за последнюю неделю. Архивные данные за месяц целиком и за предыдущие месяцы, начиная с января 2011 года, Вы можете получить, выбрав интересующий диапазон дат из раскрывающегося списка и нажав кнопку "Ввод!".


*Определитесь, кто Вы:
робот инопланетянин человек

Внимание! Время в таблицах - всемирное. Для получения местного времени необходимо прибавить поправку, которая в Cape Ross равна 0 ч.

Смотрите также архив погоды в соседних городах и на ближайших метеорологических станциях:

Погода в Marble Point (Антарктида) (82 км)
Погода в McMurdo (Антарктида) (156 км)
Погода в Pegasus North (Антарктида) (163 км)
Погода в Manuela (Антарктида) (198 км)
Погода в Minna Bluff (Антарктида) (223 км)
Погода в Baia Terra Nova (Антарктида) (226 км)
Погода в Ferrell (Антарктида) (232 км)
Погода в Linda (Антарктида) (233 км)
Погода в Jang Bogo (Антарктида) (235 км)
Погода в Priestley Glacier (Антарктида) (349 км)

Пояснения к столбцам:

Ветер - указаны скорость ветра в м/с - средняя за 10 мин, порывы в срок и между сроками (в фигурных скобках) и направление, откуда дует ветер: С - северный, СВ - северо-восточный, В - восточный, ЮВ - юго-восточный, Ю - южный, ЮЗ - юго-западный, З - западный, СЗ - северо-западный.
Видимость - горизонтальная дальность видимости в метрах или километрах. При видимости от 1 до 10 км при отсутствии осадков обычно наблюдается дымка, при ухудшении видимости до 1 км и менее - туман. В сухую погоду видимость может ухудшаться дымом, пылью или мглою.
Явления - указаны атмосферные явления, наблюдавшиеся в срок или в последний час перед сроком; фигурными скобками обозначены явления, наблюдавшиеся между сроками (за 1-3 часа до срока); квадратными скобками обозначены град или гололедные отложения с указанием их диаметра в мм.
Облачность - указаны через наклонную черту общая и нижняя облачность в баллах и высота нижней границы облаков в метрах; квадратными скобками обозначены формы облаков: Ci - перистые, Cs - перисто-слоистые, Cc - перисто-кучевые, Ac - высококучевые, As - высокослоистые, Sc - слоисто-кучевые, Ns - слоисто-дождевые, Cu - кучевые, Cb - кучево-дождевые. Подробнее классификацию облаков см. в Атласе облаков (PDF).
T - Температура воздуха - температура, измеренная на высоте 2 м над землей.
Td - Температура точки росы - температура, при понижении до которой содержащийся в воздухе водяной пар достигнет насыщения.
f - Относительная влажность воздуха - влажноcть воздуха, измеренная на высоте 2 м над землей.
Te - Эффективная температура - температура, которую ощущает одетый по сезону человек в тени. Характеристика душности погоды. При расчете учитывается влияние влажности воздуха и скорости ветра на теплоощущения человека.
Tes - Эффективная температура на солнце - температура, которую ощущает человек, с поправкой на солнечный нагрев. Характеристика знойности погоды. Зависит от высоты солнца над горизонтом, облачности и скорости ветра. Ночью, в пасмурную погоду, а также при ветре 12 м/с и более поправка равна нулю.
P - Атмосферное давление - приведенное к уровню моря атмосферное давление.
Po - Атмосферное давление - измеренное на уровне метеостанции атмосферное давление.
Tmin - Минимальная температура - минимум температуры воздуха на высоте 2 м над землей.
Tmax - Максимальная температура - максимум температуры воздуха на высоте 2 м над землей.
R - Количество осадков - Количество выпавших осадков за период времени, мм. При наведении курсора мыши на число - период времени, за который выпало указанное количество осадков.
R24 - Количество осадков - Количество выпавших осадков за 24 часа, мм.
S - Снежный покров - Высота снежного покрова, см. При наведении курсора мыши на число - состояние снежного покрова и степень покрытия местности в баллах.